When you browse on this site, cookies collect data to enhance your experience and personalize the content and advertising you see.
Visit our Privacy Policy to learn more. By continuing to use the site, you agree to this use of cookies and data.
  • en France
  • Liste des pays
  • À 7 jours
  • Température de l'eau
  • Carte satellitaire
  • Carte météo
  • Widgets météo
  • user-avatar
    Se connecter

    Météo par heure à Gabrovo

    Ce jour, 23 Mars, Samedi

    Heure Température Précipitation Vent Pression Humidité
    00:00 +7°C° 0 mm 1 m/s 707 mmHg 64%
    01:00 +7°C° 0 mm 1 m/s 707 mmHg 65%
    02:00 +7°C° 0 mm 1 m/s 706 mmHg 63%
    03:00 +6°C° 0 mm 1 m/s 706 mmHg 63%
    04:00 +6°C° 0 mm 1 m/s 706 mmHg 64%
    05:00 +6°C° 0 mm 1 m/s 706 mmHg 64%
    06:00 +7°C° 0 mm 1 m/s 706 mmHg 63%
    07:00 +7°C° 0 mm 1 m/s 707 mmHg 62%
    08:00 +9°C° 0 mm 1 m/s 707 mmHg 59%
    09:00 +10°C° 0 mm 1 m/s 707 mmHg 55%
    10:00 +12°C° 0 mm 1 m/s 707 mmHg 50%
    11:00 +14°C° 0 mm 1 m/s 707 mmHg 46%
    12:00 +14°C° 0 mm 1 m/s 706 mmHg 44%
    13:00 +15°C° 0 mm 1 m/s 706 mmHg 43%
    14:00 +16°C° 0 mm 1 m/s 706 mmHg 41%
    15:00 +15°C° 0 mm 1 m/s 706 mmHg 43%
    16:00 +15°C° 0 mm 2 m/s 705 mmHg 45%
    17:00 +14°C° 0 mm 2 m/s 705 mmHg 47%
    18:00 +13°C° 0 mm 2 m/s 705 mmHg 55%
    19:00 +10°C° 0 mm 3 m/s 705 mmHg 63%
    20:00 +8°C° 0 mm 3 m/s 705 mmHg 70%
    21:00 +7°C° 0 mm 2 m/s 705 mmHg 68%
    22:00 +6°C° 0 mm 2 m/s 706 mmHg 66%
    23:00 +6°C° 0 mm 2 m/s 706 mmHg 64%

    Demain, 24 Mars, Dimanche

    Heure Température Précipitation Vent Pression Humidité
    00:00 +7°C° 0 mm 1 m/s 706 mmHg 59%
    01:00 +7°C° 0 mm 1 m/s 706 mmHg 55%
    02:00 +6°C° 0 mm 1 m/s 706 mmHg 50%
    03:00 +6°C° 0 mm 1 m/s 706 mmHg 51%
    04:00 +6°C° 0 mm 1 m/s 706 mmHg 52%
    05:00 +5°C° 0 mm 1 m/s 706 mmHg 52%
    06:00 +6°C° 0 mm 1 m/s 706 mmHg 53%
    07:00 +6°C° 0 mm 1 m/s 706 mmHg 54%
    08:00 +7°C° 0 mm 1 m/s 706 mmHg 55%
    09:00 +9°C° 0 mm 1 m/s 706 mmHg 50%
    10:00 +10°C° 0 mm 1 m/s 706 mmHg 46%
    11:00 +12°C° 0 mm 1 m/s 706 mmHg 42%
    12:00 +13°C° 0 mm 1 m/s 706 mmHg 38%
    13:00 +14°C° 0 mm 1 m/s 706 mmHg 35%
    14:00 +15°C° 0 mm 1 m/s 705 mmHg 31%
    15:00 +14°C° 0 mm 1 m/s 705 mmHg 32%
    16:00 +14°C° 0 mm 1 m/s 704 mmHg 33%
    17:00 +14°C° 0 mm 1 m/s 704 mmHg 34%
    18:00 +12°C° 0 mm 1 m/s 704 mmHg 40%
    19:00 +10°C° 0 mm 1 m/s 704 mmHg 46%
    20:00 +7°C° 0 mm 0 m/s 703 mmHg 52%
    21:00 +7°C° 0 mm 0 m/s 703 mmHg 53%
    22:00 +6°C° 0 mm 0 m/s 703 mmHg 54%
    23:00 +7°C° 0 mm 1 m/s 703 mmHg 56%

    Après-demain, 25 Mars, Lundi

    Heure Température Précipitation Vent Pression Humidité
    00:00 +5°C° 0 mm 0 m/s 703 mmHg 57%
    01:00 +5°C° 0 mm 0 m/s 703 mmHg 58%
    02:00 +4°C° 0 mm 0 m/s 702 mmHg 59%
    03:00 +4°C° 0 mm 0 m/s 702 mmHg 60%
    04:00 +4°C° 0 mm 0 m/s 702 mmHg 61%
    05:00 +3°C° 0 mm 0 m/s 701 mmHg 63%
    06:00 +4°C° 0 mm 0 m/s 701 mmHg 61%
    07:00 +5°C° 0 mm 0 m/s 701 mmHg 59%
    08:00 +6°C° 0 mm 0 m/s 701 mmHg 57%
    09:00 +9°C° 0 mm 1 m/s 701 mmHg 51%
    10:00 +11°C° 0 mm 1 m/s 701 mmHg 45%
    11:00 +13°C° 0 mm 2 m/s 701 mmHg 38%
    12:00 +14°C° 0 mm 2 m/s 700 mmHg 36%
    13:00 +15°C° 0 mm 2 m/s 700 mmHg 34%
    14:00 +16°C° 0 mm 2 m/s 699 mmHg 32%
    15:00 +16°C° 0 mm 2 m/s 699 mmHg 33%
    16:00 +16°C° 0 mm 2 m/s 698 mmHg 35%
    17:00 +15°C° 0 mm 2 m/s 698 mmHg 37%
    18:00 +13°C° 0 mm 2 m/s 698 mmHg 43%
    19:00 +10°C° 0 mm 2 m/s 697 mmHg 49%
    20:00 +8°C° 0 mm 2 m/s 697 mmHg 56%
    21:00 +8°C° 0 mm 2 m/s 697 mmHg 58%
    22:00 +7°C° 0 mm 2 m/s 697 mmHg 61%
    23:00 +8°C° 0 mm 1 m/s 697 mmHg 64%

    26 Mars, Mardi

    Heure Température Précipitation Vent Pression Humidité
    00:00 +7°C° 0 mm 1 m/s 697 mmHg 64%
    01:00 +7°C° 0 mm 1 m/s 697 mmHg 65%
    02:00 +7°C° 0 mm 1 m/s 697 mmHg 66%
    03:00 +7°C° 0 mm 1 m/s 697 mmHg 66%
    04:00 +6°C° 0 mm 1 m/s 696 mmHg 67%
    05:00 +5°C° 0 mm 0 m/s 696 mmHg 67%
    06:00 +7°C° 0 mm 1 m/s 697 mmHg 65%
    07:00 +8°C° 0 mm 1 m/s 698 mmHg 63%
    08:00 +8°C° 0 mm 2 m/s 698 mmHg 60%
    09:00 +9°C° 0 mm 2 m/s 699 mmHg 58%
    10:00 +12°C° 0 mm 2 m/s 699 mmHg 56%
    11:00 +12°C° 0 mm 3 m/s 700 mmHg 54%
    12:00 +12°C° 0.1 mm 3 m/s 700 mmHg 53%
    13:00 +12°C° 0.1 mm 4 m/s 700 mmHg 53%
    14:00 +12°C° 0.1 mm 4 m/s 700 mmHg 52%
    15:00 +11°C° 0.1 mm 4 m/s 700 mmHg 53%
    16:00 +10°C° 0.1 mm 4 m/s 700 mmHg 53%
    17:00 +8°C° 0.1 mm 4 m/s 700 mmHg 54%
    18:00 +9°C° 0 mm 3 m/s 701 mmHg 57%
    19:00 +8°C° 0 mm 3 m/s 702 mmHg 60%
    20:00 +7°C° 0 mm 2 m/s 702 mmHg 63%
    21:00 +7°C° 0 mm 2 m/s 703 mmHg 67%
    22:00 +6°C° 0 mm 2 m/s 703 mmHg 71%
    23:00 +7°C° 0 mm 1 m/s 703 mmHg 76%

    27 Mars, Mercredi

    Heure Température Précipitation Vent Pression Humidité
    00:00 +6°C° 0.1 mm 1 m/s 703 mmHg 77%
    01:00 +6°C° 0.1 mm 1 m/s 704 mmHg 78%
    02:00 +6°C° 0.1 mm 1 m/s 704 mmHg 79%
    03:00 +6°C° 0.2 mm 1 m/s 704 mmHg 80%
    04:00 +4°C° 0.2 mm 0 m/s 704 mmHg 81%
    05:00 +4°C° 0.2 mm 0 m/s 704 mmHg 81%
    06:00 +4°C° 0.3 mm 0 m/s 705 mmHg 80%
    07:00 +5°C° 0.3 mm 1 m/s 705 mmHg 78%
    08:00 +5°C° 0.3 mm 1 m/s 706 mmHg 76%
    09:00 +6°C° 0.3 mm 1 m/s 706 mmHg 74%
    10:00 +6°C° 0.3 mm 1 m/s 706 mmHg 72%
    11:00 +6°C° 0.3 mm 1 m/s 706 mmHg 70%
    12:00 +7°C° 0.4 mm 1 m/s 706 mmHg 68%
    13:00 +8°C° 0.4 mm 1 m/s 706 mmHg 66%
    14:00 +8°C° 0.4 mm 1 m/s 706 mmHg 64%
    15:00 +8°C° 0.4 mm 1 m/s 706 mmHg 66%
    16:00 +8°C° 0.4 mm 1 m/s 706 mmHg 67%
    17:00 +6°C° 0.4 mm 2 m/s 706 mmHg 69%
    18:00 +6°C° 0.6 mm 2 m/s 706 mmHg 72%
    19:00 +5°C° 0.6 mm 2 m/s 706 mmHg 75%
    20:00 +5°C° 0.6 mm 2 m/s 707 mmHg 77%
    21:00 +4°C° 0.4 mm 2 m/s 707 mmHg 77%
    22:00 +4°C° 0.4 mm 2 m/s 707 mmHg 77%
    23:00 +3°C° 0.4 mm 2 m/s 707 mmHg 77%

    28 Mars, Jeudi

    Heure Température Précipitation Vent Pression Humidité
    00:00 +3°C° 0.3 mm 2 m/s 707 mmHg 77%
    01:00 +3°C° 0.3 mm 2 m/s 707 mmHg 77%
    02:00 +2°C° 0.3 mm 2 m/s 708 mmHg 77%
    03:00 +3°C° 0.1 mm 1 m/s 708 mmHg 77%
    04:00 +3°C° 0.1 mm 1 m/s 708 mmHg 77%
    05:00 +3°C° 0.1 mm 1 m/s 708 mmHg 77%
    06:00 +3°C° 0 mm 1 m/s 708 mmHg 73%
    07:00 +3°C° 0 mm 1 m/s 709 mmHg 70%
    08:00 +4°C° 0 mm 1 m/s 709 mmHg 66%
    09:00 +5°C° 0 mm 1 m/s 709 mmHg 62%
    10:00 +6°C° 0 mm 1 m/s 710 mmHg 58%
    11:00 +6°C° 0 mm 2 m/s 710 mmHg 53%
    12:00 +6°C° 0 mm 2 m/s 710 mmHg 52%
    13:00 +7°C° 0 mm 3 m/s 710 mmHg 51%
    14:00 +7°C° 0 mm 3 m/s 709 mmHg 49%
    15:00 +7°C° 0 mm 3 m/s 709 mmHg 48%
    16:00 +6°C° 0 mm 4 m/s 709 mmHg 47%
    17:00 +5°C° 0 mm 4 m/s 709 mmHg 45%
    18:00 +4°C° 0 mm 3 m/s 709 mmHg 50%
    19:00 +2°C° 0 mm 3 m/s 709 mmHg 55%
    20:00 +1°C° 0 mm 2 m/s 709 mmHg 60%
    21:00 -1°C° 0 mm 2 m/s 709 mmHg 60%
    22:00 -1°C° 0 mm 2 m/s 710 mmHg 61%
    23:00 0°C° 0 mm 1 m/s 710 mmHg 61%
    Voir plus